Time,TemperatureF,DewpointF,PressureIn,WindDirection,WindDirectionDegrees,WindSpeedMPH,WindSpeedGustMPH,Humidity,HourlyPrecipIn,Conditions,Clouds,dailyrainin,SoftwareType,DateUTC
2013-05-24 00:03:00,55.5,26.1,29.91,East,95,0.0,0.0,32,0.00,CLR,,0.00,WeatherDisplay:10.37,2013-05-24 07:03:00,
2013-05-24 00:08:00,55.4,26.0,29.90,East,94,0.0,0.0,32,0.00,CLR,,0.00,WeatherDisplay:10.37,2013-05-24 07:08:00,
2013-05-24 00:13:00,55.4,26.7,29.90,East,94,3.5,3.5,33,0.00,CLR,,0.00,WeatherDisplay:10.37,2013-05-24 07:13:00,
2013-05-24 00:18:00,55.2,26.6,29.90,NNW,342,3.5,3.5,33,0.00,CLR,,0.00,WeatherDisplay:10.37,2013-05-24 07:18:00,
2013-05-24 00:23:00,55.0,26.4,29.89,NNW,342,0.0,0.0,33,0.00,CLR,,0.00,WeatherDisplay:10.37,2013-05-24 07:23:00,
2013-05-24 00:28:00,54.8,26.2,29.90,NNW,341,3.5,3.5,33,0.00,CLR,,0.00,WeatherDisplay:10.37,2013-05-24 07:28:00,
2013-05-24 00:33:00,54.6,26.0,29.91,WNW,302,4.0,4.0,33,0.00,CLR,,0.00,WeatherDisplay:10.37,2013-05-24 07:33:00,
2013-05-24 00:38:00,53.7,25.2,29.91,West,266,4.6,4.6,33,0.00,CLR,,0.00,WeatherDisplay:10.37,2013-05-24 07:38:00,
2013-05-24 00:43:00,53.4,25.0,29.91,West,265,1.1,1.1,33,0.00,CLR,,0.00,WeatherDisplay:10.37,2013-05-24 07:43:00,
2013-05-24 00:48:00,52.7,23.6,29.91,West,267,2.3,2.3,32,0.00,CLR,,0.00,WeatherDisplay:10.37,2013-05-24 07:48:00,
2013-05-24 00:53:00,52.6,24.3,29.91,West,267,4.0,4.0,33,0.00,CLR,,0.00,WeatherDisplay:10.37,2013-05-24 07:53:00,
2013-05-24 00:58:00,52.7,24.4,29.91,West,267,0.0,0.0,33,0.00,CLR,,0.00,WeatherDisplay:10.37,2013-05-24 07:58:00,
2013-05-24 01:03:00,52.8,24.5,29.91,West,267,2.3,2.3,33,0.00,CLR,,0.00,WeatherDisplay:10.37,2013-05-24 08:03:00,
2013-05-24 01:08:00,53.2,24.8,29.91,West,267,3.5,3.5,33,0.00,CLR,,0.00,WeatherDisplay:10.37,2013-05-24 08:08:00,
2013-05-24 01:13:00,53.8,24.6,29.91,West,267,1.1,1.1,32,0.00,CLR,,0.00,WeatherDisplay:10.37,2013-05-24 08:13:00,
2013-05-24 01:18:00,54.0,25.5,29.91,West,267,0.0,0.0,33,0.00,CLR,,0.00,WeatherDisplay:10.37,2013-05-24 08:18:00,
2013-05-24 01:23:00,53.4,25.0,29.91,West,264,0.0,0.0,33,0.00,CLR,,0.00,WeatherDisplay:10.37,2013-05-24 08:23:00,
2013-05-24 01:28:00,53.0,24.6,29.91,South,178,0.0,0.0,33,0.00,CLR,,0.00,WeatherDisplay:10.37,2013-05-24 08:28:00,
2013-05-24 01:33:00,53.1,24.7,29.91,South,177,1.1,1.1,33,0.00,CLR,,0.00,WeatherDisplay:10.37,2013-05-24 08:33:00,
2013-05-24 01:38:00,53.0,24.6,29.90,South,177,3.5,3.5,33,0.00,CLR,,0.00,WeatherDisplay:10.37,2013-05-24 08:38:00,
2013-05-24 01:43:00,52.7,25.1,29.91,South,177,2.3,2.3,34,0.00,CLR,,0.00,WeatherDisplay:10.37,2013-05-24 08:43:00,
2013-05-24 01:48:00,51.9,24.4,29.90,South,177,2.3,2.3,34,0.00,CLR,,0.00,WeatherDisplay:10.37,2013-05-24 08:48:00,
2013-05-24 01:53:00,51.4,23.9,29.90,SE,130,3.5,3.5,34,0.00,CLR,,0.00,WeatherDisplay:10.37,2013-05-24 08:53:00,
2013-05-24 01:58:00,51.1,23.7,29.91,SE,130,0.0,0.0,34,0.00,CLR,,0.00,WeatherDisplay:10.37,2013-05-24 08:58:00,
2013-05-24 02:03:00,50.6,23.2,29.91,SE,130,3.5,3.5,34,0.00,CLR,,0.00,WeatherDisplay:10.37,2013-05-24 09:03:00,
2013-05-24 02:08:00,50.5,23.1,29.90,SE,130,0.0,0.0,34,0.00,CLR,,0.00,WeatherDisplay:10.37,2013-05-24 09:08:00,
2013-05-24 02:13:00,50.5,23.1,29.90,SSE,149,4.0,4.0,34,0.00,CLR,,0.00,WeatherDisplay:10.37,2013-05-24 09:13:00,
2013-05-24 02:18:00,50.3,23.0,29.90,SSE,150,3.5,3.5,34,0.00,CLR,,0.00,WeatherDisplay:10.37,2013-05-24 09:18:00,
2013-05-24 02:23:00,49.7,22.4,29.90,SSE,149,0.0,0.0,34,0.00,CLR,,0.00,WeatherDisplay:10.37,2013-05-24 09:23:00,
2013-05-24 02:28:00,49.2,22.7,29.90,SSE,150,0.0,0.0,35,0.00,CLR,,0.00,WeatherDisplay:10.37,2013-05-24 09:28:00,
2013-05-24 02:33:00,48.9,23.1,29.90,SSE,150,0.0,0.0,36,0.00,CLR,,0.00,WeatherDisplay:10.37,2013-05-24 09:33:00,
2013-05-24 02:38:00,49.1,23.3,29.90,SSE,150,1.1,1.1,36,0.00,CLR,,0.00,WeatherDisplay:10.37,2013-05-24 09:38:00,
2013-05-24 02:43:00,49.0,23.8,29.90,SSE,151,7.0,7.0,37,0.00,CLR,,0.00,WeatherDisplay:10.37,2013-05-24 09:43:00,
2013-05-24 02:48:00,49.2,24.0,29.90,South,171,3.5,3.5,37,0.00,CLR,,0.00,WeatherDisplay:10.37,2013-05-24 09:48:00,
2013-05-24 02:53:00,49.7,25.1,29.91,NNW,333,3.5,3.5,38,0.00,CLR,,0.00,WeatherDisplay:10.37,2013-05-24 09:53:00,
2013-05-24 02:58:00,50.5,25.2,29.90,NW,318,3.5,3.5,37,0.00,CLR,,0.00,WeatherDisplay:10.37,2013-05-24 09:58:00,
2013-05-24 03:03:00,50.5,25.2,29.91,NW,318,2.3,2.3,37,0.00,CLR,,0.00,WeatherDisplay:10.37,2013-05-24 10:03:00,
2013-05-24 03:08:00,50.4,25.1,29.91,NW,318,1.1,1.1,37,0.00,CLR,,0.00,WeatherDisplay:10.37,2013-05-24 10:08:00,
2013-05-24 03:13:00,50.1,25.5,29.91,NW,318,3.5,3.5,38,0.00,CLR,,0.00,WeatherDisplay:10.37,2013-05-24 10:13:00,
2013-05-24 03:18:00,49.8,25.2,29.91,SW,219,2.3,2.3,38,0.00,CLR,,0.00,WeatherDisplay:10.37,2013-05-24 10:18:00,
2013-05-24 03:23:00,49.5,24.9,29.91,SW,219,3.5,3.5,38,0.00,CLR,,0.00,WeatherDisplay:10.37,2013-05-24 10:23:00,
2013-05-24 03:28:00,49.5,24.9,29.91,SW,219,3.5,3.5,38,0.00,CLR,,0.00,WeatherDisplay:10.37,2013-05-24 10:28:00,
2013-05-24 03:33:00,49.7,25.1,29.91,SW,218,3.5,3.5,38,0.00,CLR,,0.00,WeatherDisplay:10.37,2013-05-24 10:33:00,
2013-05-24 03:38:00,49.9,25.3,29.91,SW,218,0.0,0.0,38,0.00,CLR,,0.00,WeatherDisplay:10.37,2013-05-24 10:38:00,
2013-05-24 03:43:00,49.7,25.1,29.91,SW,218,0.0,0.0,38,0.00,CLR,,0.00,WeatherDisplay:10.37,2013-05-24 10:43:00,
2013-05-24 03:48:00,49.7,25.1,29.91,SW,218,3.5,3.5,38,0.00,CLR,,0.00,WeatherDisplay:10.37,2013-05-24 10:48:00,
2013-05-24 03:53:00,49.9,25.9,29.91,SW,227,0.0,0.0,39,0.00,CLR,,0.00,WeatherDisplay:10.37,2013-05-24 10:53:00,
2013-05-24 03:58:00,49.9,26.5,29.91,SW,227,3.5,3.5,40,0.00,CLR,,0.00,WeatherDisplay:10.37,2013-05-24 10:58:00,
2013-05-24 04:03:00,49.8,26.4,29.91,SW,227,3.5,3.6,40,0.00,CLR,,0.00,WeatherDisplay:10.37,2013-05-24 11:03:00,
2013-05-24 04:08:00,49.7,26.3,29.91,SW,228,3.5,3.5,40,0.00,CLR,,0.00,WeatherDisplay:10.37,2013-05-24 11:08:00,
2013-05-24 04:13:00,49.2,25.9,29.91,SW,227,3.5,3.5,40,0.00,CLR,,0.00,WeatherDisplay:10.37,2013-05-24 11:13:00,
2013-05-24 04:18:00,48.2,25.0,29.91,WSW,242,4.6,4.6,40,0.00,CLR,,0.00,WeatherDisplay:10.37,2013-05-24 11:18:00,
2013-05-24 04:23:00,47.3,24.8,29.91,WSW,242,3.5,3.5,41,0.00,CLR,,0.00,WeatherDisplay:10.37,2013-05-24 11:23:00,
2013-05-24 04:28:00,46.9,25.0,29.92,WSW,242,2.3,2.3,42,0.00,CLR,,0.00,WeatherDisplay:10.37,2013-05-24 11:28:00,
2013-05-24 04:33:00,46.3,24.4,29.91,WSW,242,3.5,3.5,42,0.00,CLR,,0.00,WeatherDisplay:10.37,2013-05-24 11:33:00,
2013-05-24 04:38:00,46.0,24.2,29.91,WSW,241,0.0,0.0,42,0.00,CLR,,0.00,WeatherDisplay:10.37,2013-05-24 11:38:00,
2013-05-24 04:43:00,45.9,24.1,29.91,SSW,195,0.0,0.0,42,0.00,CLR,,0.00,WeatherDisplay:10.37,2013-05-24 11:43:00,
2013-05-24 04:48:00,45.9,24.6,29.91,SSW,195,0.0,0.0,43,0.00,CLR,,0.00,WeatherDisplay:10.37,2013-05-24 11:48:00,
2013-05-24 04:53:00,45.9,24.1,29.91,SSW,195,0.0,0.0,42,0.00,CLR,,0.00,WeatherDisplay:10.37,2013-05-24 11:53:00,
2013-05-24 04:58:00,46.0,24.7,29.91,SSW,195,0.0,0.0,43,0.00,CLR,,0.00,WeatherDisplay:10.37,2013-05-24 11:58:00,
2013-05-24 05:03:00,45.9,24.6,29.91,SSW,195,0.0,0.0,43,0.00,CLR,,0.00,WeatherDisplay:10.37,2013-05-24 12:03:00,
2013-05-24 05:08:00,45.9,24.6,29.92,SSW,195,0.0,0.0,43,0.00,CLR,,0.00,WeatherDisplay:10.37,2013-05-24 12:08:00,
2013-05-24 05:13:00,46.0,24.7,29.92,SSW,195,0.0,0.0,43,0.00,CLR,,0.00,WeatherDisplay:10.37,2013-05-24 12:13:00,
2013-05-24 05:18:00,46.3,24.4,29.92,SSW,195,3.5,3.5,42,0.00,CLR,,0.00,WeatherDisplay:10.37,2013-05-24 12:18:00,
2013-05-24 05:23:00,46.5,24.6,29.92,SSW,195,2.3,2.3,42,0.00,CLR,,0.00,WeatherDisplay:10.37,2013-05-24 12:23:00,
2013-05-24 05:28:00,46.1,24.3,29.92,SSW,195,3.5,3.5,42,0.00,CLR,,0.00,WeatherDisplay:10.37,2013-05-24 12:28:00,
2013-05-24 05:33:00,45.6,23.8,29.92,SSW,195,3.5,3.5,42,0.00,CLR,,0.00,WeatherDisplay:10.37,2013-05-24 12:33:00,
2013-05-24 05:38:00,45.4,24.2,29.92,SSW,195,3.5,3.5,43,0.00,CLR,,0.00,WeatherDisplay:10.37,2013-05-24 12:38:00,
2013-05-24 05:43:00,45.4,23.6,29.92,SSW,195,3.5,3.5,42,0.00,CLR,,0.00,WeatherDisplay:10.37,2013-05-24 12:43:00,
2013-05-24 05:48:00,45.3,23.5,29.92,SSW,195,3.5,3.5,42,0.00,CLR,,0.00,WeatherDisplay:10.37,2013-05-24 12:48:00,
2013-05-24 05:53:00,45.4,23.6,29.92,SSW,195,3.5,3.5,42,0.00,CLR,,0.00,WeatherDisplay:10.37,2013-05-24 12:53:00,
2013-05-24 05:58:00,45.9,24.6,29.93,SSW,195,3.5,3.5,43,0.00,CLR,,0.00,WeatherDisplay:10.37,2013-05-24 12:58:00,
2013-05-24 06:03:00,46.5,25.2,29.93,SSW,195,3.5,3.5,43,0.00,CLR,,0.00,WeatherDisplay:10.37,2013-05-24 13:03:00,
2013-05-24 06:08:00,46.9,25.0,29.93,SSW,195,3.5,3.5,42,0.00,CLR,,0.00,WeatherDisplay:10.37,2013-05-24 13:08:00,
2013-05-24 06:13:00,47.4,25.4,29.93,SSW,195,3.5,3.5,42,0.00,CLR,,0.00,WeatherDisplay:10.37,2013-05-24 13:13:00,
2013-05-24 06:18:00,47.8,26.4,29.93,SSW,195,5.8,5.8,43,0.00,CLR,,0.00,WeatherDisplay:10.37,2013-05-24 13:18:00,
2013-05-24 06:23:00,48.6,26.5,29.93,West,281,9.2,9.2,42,0.00,CLR,,0.00,WeatherDisplay:10.37,2013-05-24 13:23:00,
2013-05-24 06:28:00,49.6,27.4,29.93,West,259,6.9,6.9,42,0.00,CLR,,0.00,WeatherDisplay:10.37,2013-05-24 13:28:00,
2013-05-24 06:33:00,50.0,27.8,29.93,West,269,9.2,9.2,42,0.00,CLR,,0.00,WeatherDisplay:10.37,2013-05-24 13:33:00,
2013-05-24 06:38:00,50.5,27.7,29.93,West,268,11.5,11.5,41,0.00,CLR,,0.00,WeatherDisplay:10.37,2013-05-24 13:38:00,
2013-05-24 06:43:00,50.7,27.8,29.94,West,259,11.5,11.5,41,0.00,CLR,,0.00,WeatherDisplay:10.37,2013-05-24 13:43:00,
2013-05-24 06:48:00,51.0,28.1,29.94,West,276,10.4,10.4,41,0.00,CLR,,0.00,WeatherDisplay:10.37,2013-05-24 13:48:00,
2013-05-24 06:53:00,51.3,28.4,29.94,West,273,4.6,4.6,41,0.00,CLR,,0.00,WeatherDisplay:10.37,2013-05-24 13:53:00,
2013-05-24 06:58:00,51.7,28.7,29.94,WNW,283,10.4,10.4,41,0.00,CLR,,0.00,WeatherDisplay:10.37,2013-05-24 13:58:00,
2013-05-24 07:03:00,52.1,28.5,29.94,WNW,284,6.9,6.9,40,0.00,CLR,,0.00,WeatherDisplay:10.37,2013-05-24 14:03:00,
2013-05-24 07:08:00,52.5,28.8,29.94,West,271,8.1,8.1,40,0.00,CLR,,0.00,WeatherDisplay:10.37,2013-05-24 14:08:00,
2013-05-24 07:13:00,53.0,29.3,29.94,WNW,286,7.0,7.0,40,0.00,CLR,,0.00,WeatherDisplay:10.37,2013-05-24 14:13:00,
2013-05-24 07:18:00,53.5,29.1,29.94,West,275,10.4,10.4,39,0.00,CLR,,0.00,WeatherDisplay:10.37,2013-05-24 14:18:00,
2013-05-24 07:23:00,54.1,29.7,29.94,West,261,5.8,5.8,39,0.00,CLR,,0.00,WeatherDisplay:10.37,2013-05-24 14:23:00,
2013-05-24 07:28:00,54.6,29.5,29.94,West,259,6.9,6.9,38,0.00,CLR,,0.00,WeatherDisplay:10.37,2013-05-24 14:28:00,
2013-05-24 07:33:00,55.1,29.9,29.94,West,270,9.2,9.2,38,0.00,CLR,,0.00,WeatherDisplay:10.37,2013-05-24 14:33:00,
2013-05-24 07:38:00,55.7,29.8,29.94,WSW,255,11.5,11.5,37,0.00,CLR,,0.00,WeatherDisplay:10.37,2013-05-24 14:38:00,
2013-05-24 07:43:00,56.1,30.2,29.94,West,260,9.2,9.2,37,0.00,CLR,,0.00,WeatherDisplay:10.37,2013-05-24 14:43:00,
2013-05-24 07:48:00,56.7,30.0,29.94,WSW,240,9.2,9.2,36,0.00,CLR,,0.00,WeatherDisplay:10.37,2013-05-24 14:48:00,
2013-05-24 07:53:00,57.4,30.6,29.94,WSW,249,11.5,11.5,36,0.00,CLR,,0.00,WeatherDisplay:10.37,2013-05-24 14:53:00,
2013-05-24 07:58:00,58.0,30.5,29.94,WSW,256,11.5,11.5,35,0.00,CLR,,0.00,WeatherDisplay:10.37,2013-05-24 14:58:00,
2013-05-24 08:03:00,58.5,30.9,29.94,WSW,255,6.9,6.9,35,0.00,CLR,,0.00,WeatherDisplay:10.37,2013-05-24 15:03:00,
2013-05-24 08:08:00,59.0,30.6,29.94,WSW,254,10.4,10.4,34,0.00,CLR,,0.00,WeatherDisplay:10.37,2013-05-24 15:08:00,
2013-05-24 08:13:00,59.8,30.6,29.94,WSW,240,10.4,10.4,33,0.00,CLR,,0.00,WeatherDisplay:10.37,2013-05-24 15:13:00,
2013-05-24 08:18:00,60.3,30.3,29.95,SSW,211,10.4,10.4,32,0.00,CLR,,0.00,WeatherDisplay:10.37,2013-05-24 15:18:00,
2013-05-24 08:23:00,61.1,30.2,29.95,WSW,248,11.5,11.5,31,0.00,CLR,,0.00,WeatherDisplay:10.37,2013-05-24 15:23:00,
2013-05-24 08:28:00,61.7,30.7,29.95,WSW,247,6.9,6.9,31,0.00,CLR,,0.00,WeatherDisplay:10.37,2013-05-24 15:28:00,
2013-05-24 08:33:00,62.2,31.2,29.95,SSW,205,4.6,4.6,31,0.00,CLR,,0.00,WeatherDisplay:10.37,2013-05-24 15:33:00,
2013-05-24 08:38:00,62.9,31.0,29.94,SSW,205,6.9,6.9,30,0.00,CLR,,0.00,WeatherDisplay:10.37,2013-05-24 15:38:00,
2013-05-24 08:43:00,63.5,30.6,29.94,SSW,205,6.9,6.9,29,0.00,CLR,,0.00,WeatherDisplay:10.37,2013-05-24 15:43:00,
2013-05-24 08:48:00,63.7,30.0,29.94,SSW,213,5.8,5.8,28,0.00,CLR,,0.00,WeatherDisplay:10.37,2013-05-24 15:48:00,
2013-05-24 08:53:00,64.1,30.3,29.94,WSW,246,3.5,3.5,28,0.00,CLR,,0.00,WeatherDisplay:10.37,2013-05-24 15:53:00,
2013-05-24 08:58:00,64.7,29.9,29.94,SSW,204,5.8,5.8,27,0.00,CLR,,0.00,WeatherDisplay:10.37,2013-05-24 15:58:00,
2013-05-24 09:03:00,65.1,30.3,29.94,SSW,204,9.2,9.2,27,0.00,CLR,,0.00,WeatherDisplay:10.37,2013-05-24 16:03:00,
2013-05-24 09:08:00,65.4,29.6,29.94,WSW,239,5.8,5.8,26,0.00,CLR,,0.00,WeatherDisplay:10.37,2013-05-24 16:08:00,
2013-05-24 09:13:00,65.8,29.9,29.94,SSW,211,6.9,6.9,26,0.00,CLR,,0.00,WeatherDisplay:10.37,2013-05-24 16:13:00,
2013-05-24 09:18:00,66.3,30.4,29.94,SSW,207,3.5,3.5,26,0.00,CLR,,0.00,WeatherDisplay:10.37,2013-05-24 16:18:00,
2013-05-24 09:23:00,66.9,30.9,29.94,SSW,203,6.9,6.9,26,0.00,CLR,,0.00,WeatherDisplay:10.37,2013-05-24 16:23:00,
2013-05-24 09:28:00,67.0,30.0,29.94,SSW,203,6.9,6.9,25,0.00,CLR,,0.00,WeatherDisplay:10.37,2013-05-24 16:28:00,
2013-05-24 09:33:00,66.9,29.9,29.94,SSW,205,5.8,5.8,25,0.00,CLR,,0.00,WeatherDisplay:10.37,2013-05-24 16:33:00,
2013-05-24 09:38:00,67.3,30.2,29.94,WSW,254,8.1,8.1,25,0.00,CLR,,0.00,WeatherDisplay:10.37,2013-05-24 16:38:00,
2013-05-24 09:43:00,68.1,29.9,29.94,SW,223,3.5,3.5,24,0.00,CLR,,0.00,WeatherDisplay:10.37,2013-05-24 16:43:00,
2013-05-24 09:48:00,68.3,30.1,29.94,SW,223,4.6,4.6,24,0.00,CLR,,0.00,WeatherDisplay:10.37,2013-05-24 16:48:00,
2013-05-24 09:53:00,68.4,29.1,29.94,SW,223,3.5,3.5,23,0.00,CLR,,0.00,WeatherDisplay:10.37,2013-05-24 16:53:00,
2013-05-24 09:58:00,68.7,29.4,29.94,West,261,8.1,8.1,23,0.00,CLR,,0.00,WeatherDisplay:10.37,2013-05-24 16:58:00,
2013-05-24 10:03:00,69.2,29.8,29.94,WSW,241,2.0,0.0,23,0.00,CLR,,0.00,WeatherDisplay:10.37,2013-05-24 17:03:00,
2013-05-24 10:08:00,69.7,29.1,29.94,WNW,288,6.9,6.9,22,0.00,CLR,,0.00,WeatherDisplay:10.37,2013-05-24 17:08:00,
2013-05-24 10:13:00,69.7,30.2,29.94,SSE,165,5.8,5.8,23,0.00,CLR,,0.00,WeatherDisplay:10.37,2013-05-24 17:13:00,
2013-05-24 10:18:00,70.0,30.5,29.94,WSW,244,4.6,4.6,23,0.00,CLR,,0.00,WeatherDisplay:10.37,2013-05-24 17:18:00,
2013-05-24 10:23:00,70.5,29.8,29.93,SSW,192,3.5,3.5,22,0.00,CLR,,0.00,WeatherDisplay:10.37,2013-05-24 17:23:00,
2013-05-24 10:28:00,71.2,30.4,29.93,South,171,6.0,6.0,22,0.00,CLR,,0.00,WeatherDisplay:10.37,2013-05-24 17:28:00,
2013-05-24 10:33:00,71.0,30.2,29.93,SSE,155,3.5,3.5,22,0.00,CLR,,0.00,WeatherDisplay:10.37,2013-05-24 17:33:00,
2013-05-24 10:38:00,71.2,30.4,29.93,SE,145,5.0,5.0,22,0.00,CLR,,0.00,WeatherDisplay:10.37,2013-05-24 17:38:00,
2013-05-24 10:43:00,71.2,29.2,29.93,SSE,168,3.5,3.5,21,0.00,CLR,,0.00,WeatherDisplay:10.37,2013-05-24 17:43:00,
2013-05-24 10:48:00,71.6,29.6,29.93,South,169,6.9,6.9,21,0.00,CLR,,0.00,WeatherDisplay:10.37,2013-05-24 17:48:00,
2013-05-24 10:53:00,71.6,28.4,29.93,South,169,6.9,6.9,20,0.00,CLR,,0.00,WeatherDisplay:10.37,2013-05-24 17:53:00,
2013-05-24 10:58:00,71.8,28.5,29.93,SSE,168,3.5,3.5,20,0.00,CLR,,0.00,WeatherDisplay:10.37,2013-05-24 17:58:00,
2013-05-24 11:03:00,72.5,29.1,29.93,West,269,4.6,4.6,20,0.00,CLR,,0.00,WeatherDisplay:10.37,2013-05-24 18:03:00,
2013-05-24 11:08:00,72.6,29.2,29.93,SSW,200,6.9,6.9,20,0.00,CLR,,0.00,WeatherDisplay:10.37,2013-05-24 18:08:00,
2013-05-24 11:13:00,72.5,29.1,29.93,SSW,200,3.5,3.5,20,0.00,CLR,,0.00,WeatherDisplay:10.37,2013-05-24 18:13:00,
2013-05-24 11:18:00,73.1,29.6,29.93,South,169,6.0,6.0,20,0.00,CLR,,0.00,WeatherDisplay:10.37,2013-05-24 18:18:00,
2013-05-24 11:23:00,73.1,28.4,29.93,SSE,159,5.8,5.8,19,0.00,CLR,,0.00,WeatherDisplay:10.37,2013-05-24 18:23:00,
2013-05-24 11:28:00,73.3,28.5,29.93,NW,314,5.0,5.0,19,0.00,CLR,,0.00,WeatherDisplay:10.37,2013-05-24 18:28:00,
2013-05-24 11:33:00,74.6,29.6,29.93,ESE,110,10.4,10.4,19,0.00,CLR,,0.00,WeatherDisplay:10.37,2013-05-24 18:33:00,
2013-05-24 11:38:00,74.8,28.4,29.93,SE,136,11.5,11.5,18,0.00,CLR,,0.00,WeatherDisplay:10.37,2013-05-24 18:38:00,
2013-05-24 11:43:00,74.5,28.2,29.93,ESE,111,8.1,8.1,18,0.00,CLR,,0.00,WeatherDisplay:10.37,2013-05-24 18:43:00,
2013-05-24 11:48:00,74.7,28.3,29.93,ESE,112,2.3,2.3,18,0.00,CLR,,0.00,WeatherDisplay:10.37,2013-05-24 18:48:00,
2013-05-24 11:53:00,75.1,28.7,29.93,ESE,112,3.5,3.5,18,0.00,CLR,,0.00,WeatherDisplay:10.37,2013-05-24 18:53:00,
2013-05-24 11:58:00,74.5,26.8,29.93,ESE,113,10.4,10.4,17,0.00,CLR,,0.00,WeatherDisplay:10.37,2013-05-24 18:58:00,
2013-05-24 12:03:00,74.3,25.2,29.93,ESE,104,0.0,0.0,16,0.00,CLR,,0.00,WeatherDisplay:10.37,2013-05-24 19:03:00,
2013-05-24 12:08:00,75.6,27.7,29.92,East,92,0.0,0.0,17,0.00,CLR,,0.00,WeatherDisplay:10.37,2013-05-24 19:08:00,
2013-05-24 12:13:00,76.9,27.3,29.92,East,92,0.0,0.0,16,0.00,CLR,,0.00,WeatherDisplay:10.37,2013-05-24 19:13:00,
2013-05-24 12:18:00,78.1,28.2,29.92,East,94,5.8,5.8,16,0.00,CLR,,0.00,WeatherDisplay:10.37,2013-05-24 19:18:00,
2013-05-24 12:23:00,77.3,27.6,29.92,South,173,3.5,3.5,16,0.00,CLR,,0.00,WeatherDisplay:10.37,2013-05-24 19:23:00,
2013-05-24 12:28:00,77.1,27.4,29.92,WSW,249,6.9,6.9,16,0.00,CLR,,0.00,WeatherDisplay:10.37,2013-05-24 19:28:00,
2013-05-24 12:33:00,76.9,27.3,29.92,SSW,196,2.3,2.3,16,0.00,CLR,,0.00,WeatherDisplay:10.37,2013-05-24 19:33:00,
2013-05-24 12:38:00,76.9,27.3,29.92,NW,315,6.9,6.9,16,0.00,CLR,,0.00,WeatherDisplay:10.37,2013-05-24 19:38:00,
2013-05-24 12:43:00,77.3,27.6,29.92,WSW,240,10.4,10.4,16,0.00,CLR,,0.00,WeatherDisplay:10.37,2013-05-24 19:43:00,
2013-05-24 12:48:00,77.8,28.0,29.92,West,280,9.2,9.2,16,0.00,CLR,,0.00,WeatherDisplay:10.37,2013-05-24 19:48:00,
2013-05-24 12:53:00,77.5,29.2,29.92,South,173,6.9,6.9,17,0.00,CLR,,0.00,WeatherDisplay:10.37,2013-05-24 19:53:00,
2013-05-24 12:58:00,77.9,29.5,29.92,South,182,3.5,3.5,17,0.00,CLR,,0.00,WeatherDisplay:10.37,2013-05-24 19:58:00,
2013-05-24 13:03:00,77.8,28.0,29.91,NNE,28,0.0,0.0,16,0.00,CLR,,0.00,WeatherDisplay:10.37,2013-05-24 20:03:00,
2013-05-24 13:08:00,78.4,32.7,29.91,SSE,153,11.5,11.5,19,0.00,CLR,,0.00,WeatherDisplay:10.37,2013-05-24 20:08:00,
2013-05-24 13:13:00,78.3,35.1,29.91,South,171,12.7,12.7,21,0.00,CLR,,0.00,WeatherDisplay:10.37,2013-05-24 20:13:00,
2013-05-24 13:18:00,77.8,33.5,29.92,South,169,12.7,12.7,20,0.00,CLR,,0.00,WeatherDisplay:10.37,2013-05-24 20:18:00,
2013-05-24 13:23:00,77.5,35.6,29.91,SSE,159,13.8,13.8,22,0.00,CLR,,0.00,WeatherDisplay:10.37,2013-05-24 20:23:00,
2013-05-24 13:28:00,77.5,35.6,29.91,South,170,13.8,13.8,22,0.00,CLR,,0.00,WeatherDisplay:10.37,2013-05-24 20:28:00,
2013-05-24 13:33:00,77.9,34.8,29.92,SSW,198,18.4,18.4,21,0.00,CLR,,0.00,WeatherDisplay:10.37,2013-05-24 20:33:00,
2013-05-24 13:38:00,77.7,35.8,29.91,SSW,206,18.4,18.4,22,0.00,CLR,,0.00,WeatherDisplay:10.37,2013-05-24 20:38:00,
2013-05-24 13:43:00,77.7,33.4,29.91,WSW,244,13.8,13.8,20,0.00,CLR,,0.00,WeatherDisplay:10.37,2013-05-24 20:43:00,
2013-05-24 13:48:00,77.3,33.1,29.91,SSE,165,12.7,12.7,20,0.00,CLR,,0.00,WeatherDisplay:10.37,2013-05-24 20:48:00,
2013-05-24 13:53:00,77.3,33.1,29.91,SSE,165,9.2,9.2,20,0.00,CLR,,0.00,WeatherDisplay:10.37,2013-05-24 20:53:00,
2013-05-24 13:58:00,77.8,33.5,29.91,SSE,165,11.5,11.5,20,0.00,CLR,,0.00,WeatherDisplay:10.37,2013-05-24 20:58:00,
2013-05-24 14:03:00,77.8,32.2,29.90,SSE,156,11.5,11.5,19,0.00,CLR,,0.00,WeatherDisplay:10.37,2013-05-24 21:03:00,
2013-05-24 14:08:00,77.0,31.6,29.90,SSE,152,12.7,12.7,19,0.00,CLR,,0.00,WeatherDisplay:10.37,2013-05-24 21:08:00,
2013-05-24 14:13:00,77.7,30.8,29.90,SSW,208,11.5,11.5,18,0.00,CLR,,0.00,WeatherDisplay:10.37,2013-05-24 21:13:00,
2013-05-24 14:18:00,78.2,32.5,29.90,WSW,240,10.4,10.4,19,0.00,CLR,,0.00,WeatherDisplay:10.37,2013-05-24 21:18:00,
2013-05-24 14:23:00,78.9,34.4,29.90,SW,234,14.0,14.0,20,0.00,CLR,,0.00,WeatherDisplay:10.37,2013-05-24 21:23:00,
2013-05-24 14:28:00,78.7,38.9,29.90,WSW,250,20.0,20.0,24,0.00,CLR,,0.00,WeatherDisplay:10.37,2013-05-24 21:28:00,
2013-05-24 14:33:00,78.7,37.8,29.90,WSW,244,19.6,19.6,23,0.00,CLR,,0.00,WeatherDisplay:10.37,2013-05-24 21:33:00,
2013-05-24 14:38:00,79.1,38.1,29.90,West,263,18.4,18.4,23,0.00,CLR,,0.00,WeatherDisplay:10.37,2013-05-24 21:38:00,
2013-05-24 14:43:00,78.7,38.9,29.90,South,188,12.7,12.7,24,0.00,CLR,,0.00,WeatherDisplay:10.37,2013-05-24 21:43:00,
2013-05-24 14:48:00,78.4,39.7,29.90,SW,221,15.0,15.0,25,0.00,CLR,,0.00,WeatherDisplay:10.37,2013-05-24 21:48:00,
2013-05-24 14:53:00,78.7,39.9,29.90,South,182,10.4,10.4,25,0.00,CLR,,0.00,WeatherDisplay:10.37,2013-05-24 21:53:00,
2013-05-24 14:58:00,78.7,38.9,29.90,WSW,252,16.1,16.1,24,0.00,CLR,,0.00,WeatherDisplay:10.37,2013-05-24 21:58:00,
2013-05-24 15:03:00,78.7,38.9,29.90,SW,219,14.0,14.0,24,0.00,CLR,,0.00,WeatherDisplay:10.37,2013-05-24 22:03:00,
2013-05-24 15:08:00,78.3,36.3,29.90,SSW,209,23.0,23.0,22,0.00,CLR,,0.00,WeatherDisplay:10.37,2013-05-24 22:08:00,
2013-05-24 15:13:00,78.2,36.2,29.89,SSW,205,20.7,20.7,22,0.00,CLR,,0.00,WeatherDisplay:10.37,2013-05-24 22:13:00,
2013-05-24 15:18:00,78.3,36.3,29.90,SSW,195,19.6,19.6,22,0.00,CLR,,0.00,WeatherDisplay:10.37,2013-05-24 22:18:00,
2013-05-24 15:23:00,77.5,35.6,29.90,WSW,241,24.2,24.2,22,0.00,CLR,,0.00,WeatherDisplay:10.37,2013-05-24 22:23:00,
2013-05-24 15:28:00,76.7,36.1,29.90,SW,230,26.5,26.5,23,0.00,CLR,,0.00,WeatherDisplay:10.37,2013-05-24 22:28:00,
2013-05-24 15:33:00,76.7,36.1,29.89,SSW,205,24.2,24.2,23,0.00,CLR,,0.00,WeatherDisplay:10.37,2013-05-24 22:33:00,
2013-05-24 15:38:00,76.7,38.2,29.89,SSW,195,27.0,27.0,25,0.00,CLR,,0.00,WeatherDisplay:10.37,2013-05-24 22:38:00,
2013-05-24 15:43:00,76.7,40.2,29.89,SW,220,28.8,28.8,27,0.00,CLR,,0.00,WeatherDisplay:10.37,2013-05-24 22:43:00,
2013-05-24 15:48:00,76.6,42.0,29.89,SW,223,26.5,26.5,29,0.00,CLR,,0.00,WeatherDisplay:10.37,2013-05-24 22:48:00,
2013-05-24 15:53:00,76.4,39.9,29.89,South,190,22.0,22.0,27,0.00,CLR,,0.00,WeatherDisplay:10.37,2013-05-24 22:53:00,
2013-05-24 15:58:00,77.0,41.4,29.89,SW,236,26.5,26.5,28,0.00,CLR,,0.00,WeatherDisplay:10.37,2013-05-24 22:58:00,
2013-05-24 16:03:00,76.5,42.7,29.89,SW,218,28.8,28.8,30,0.00,CLR,,0.00,WeatherDisplay:10.37,2013-05-24 23:03:00,
2013-05-24 16:08:00,76.0,43.2,29.89,SW,227,29.0,29.0,31,0.00,CLR,,0.00,WeatherDisplay:10.37,2013-05-24 23:08:00,
2013-05-24 16:13:00,75.5,41.9,29.89,SW,225,27.6,27.6,30,0.00,CLR,,0.00,WeatherDisplay:10.37,2013-05-24 23:13:00,
2013-05-24 16:18:00,75.6,44.5,29.89,SSW,211,27.6,27.6,33,0.00,CLR,,0.00,WeatherDisplay:10.37,2013-05-24 23:18:00,
2013-05-24 16:23:00,75.5,43.6,29.89,SSW,205,26.5,26.5,32,0.00,CLR,,0.00,WeatherDisplay:10.37,2013-05-24 23:23:00,
2013-05-24 16:28:00,75.8,43.8,29.89,SW,225,27.6,27.6,32,0.00,CLR,,0.00,WeatherDisplay:10.37,2013-05-24 23:28:00,
2013-05-24 16:33:00,75.8,43.8,29.89,SW,230,26.5,26.5,32,0.00,CLR,,0.00,WeatherDisplay:10.37,2013-05-24 23:33:00,
2013-05-24 16:38:00,75.4,42.7,29.89,SW,229,26.5,26.5,31,0.00,CLR,,0.00,WeatherDisplay:10.37,2013-05-24 23:38:00,
2013-05-24 16:43:00,75.5,42.7,29.89,West,267,27.6,27.6,31,0.00,CLR,,0.00,WeatherDisplay:10.37,2013-05-24 23:43:00,
2013-05-24 16:48:00,75.1,44.0,29.89,SW,232,28.8,28.8,33,0.00,CLR,,0.00,WeatherDisplay:10.37,2013-05-24 23:48:00,
2013-05-24 16:53:00,74.9,42.2,29.89,SSW,207,25.3,25.3,31,0.00,CLR,,0.00,WeatherDisplay:10.37,2013-05-24 23:53:00,
2013-05-24 16:58:00,74.6,42.8,29.89,SSW,198,26.5,26.5,32,0.00,CLR,,0.00,WeatherDisplay:10.37,2013-05-24 23:58:00,
2013-05-24 17:03:00,74.4,40.9,29.89,SW,236,26.5,26.5,30,0.00,CLR,,0.00,WeatherDisplay:10.37,2013-05-25 00:03:00,
2013-05-24 17:08:00,74.9,43.0,29.89,SW,232,22.0,22.0,32,0.00,CLR,,0.00,WeatherDisplay:10.37,2013-05-25 00:08:00,
2013-05-24 17:13:00,74.8,43.0,29.89,WSW,255,27.6,27.6,32,0.00,CLR,,0.00,WeatherDisplay:10.37,2013-05-25 00:13:00,
2013-05-24 17:18:00,74.2,43.2,29.89,SW,224,24.2,24.2,33,0.00,CLR,,0.00,WeatherDisplay:10.37,2013-05-25 00:18:00,
2013-05-24 17:23:00,73.9,43.8,29.89,SW,223,23.0,23.0,34,0.00,CLR,,0.00,WeatherDisplay:10.37,2013-05-25 00:23:00,
2013-05-24 17:28:00,73.9,45.3,29.89,SW,225,26.5,26.5,36,0.00,CLR,,0.00,WeatherDisplay:10.37,2013-05-25 00:28:00,
2013-05-24 17:33:00,73.2,43.1,29.89,WSW,250,27.6,27.6,34,0.00,CLR,,0.00,WeatherDisplay:10.37,2013-05-25 00:33:00,
2013-05-24 17:38:00,72.7,44.2,29.89,WSW,238,26.0,26.0,36,0.00,CLR,,0.00,WeatherDisplay:10.37,2013-05-25 00:38:00,
2013-05-24 17:43:00,72.5,44.7,29.89,SW,230,26.5,26.5,37,0.00,CLR,,0.00,WeatherDisplay:10.37,2013-05-25 00:43:00,
2013-05-24 17:48:00,72.4,44.6,29.89,SW,215,27.0,27.0,37,0.00,CLR,,0.00,WeatherDisplay:10.37,2013-05-25 00:48:00,
2013-05-24 17:53:00,71.6,45.3,29.89,SW,221,27.6,27.6,39,0.00,CLR,,0.00,WeatherDisplay:10.37,2013-05-25 00:53:00,
2013-05-24 17:58:00,71.3,44.4,29.89,SSW,213,33.4,33.4,38,0.00,CLR,,0.00,WeatherDisplay:10.37,2013-05-25 00:58:00,
2013-05-24 18:03:00,71.3,45.7,29.89,SW,233,28.0,28.0,40,0.00,CLR,,0.00,WeatherDisplay:10.37,2013-05-25 01:03:00,
2013-05-24 18:08:00,70.9,46.0,29.89,WSW,239,24.2,24.2,41,0.00,CLR,,0.00,WeatherDisplay:10.37,2013-05-25 01:08:00,
2013-05-24 18:13:00,70.8,45.9,29.88,WSW,248,26.5,26.5,41,0.00,CLR,,0.00,WeatherDisplay:10.37,2013-05-25 01:13:00,
2013-05-24 18:18:00,70.9,46.0,29.89,SW,217,19.6,19.6,41,0.00,CLR,,0.00,WeatherDisplay:10.37,2013-05-25 01:18:00,
2013-05-24 18:23:00,70.8,44.6,29.89,SW,217,26.5,26.5,39,0.00,CLR,,0.00,WeatherDisplay:10.37,2013-05-25 01:23:00,
2013-05-24 18:28:00,70.6,46.4,29.89,SW,215,23.0,23.0,42,0.00,CLR,,0.00,WeatherDisplay:10.37,2013-05-25 01:28:00,
2013-05-24 18:33:00,70.3,45.5,29.89,SW,219,23.0,23.0,41,0.00,CLR,,0.00,WeatherDisplay:10.37,2013-05-25 01:33:00,
2013-05-24 18:38:00,69.7,45.6,29.89,SW,225,21.9,21.9,42,0.00,CLR,,0.00,WeatherDisplay:10.37,2013-05-25 01:38:00,
2013-05-24 18:43:00,69.4,45.9,29.89,SSW,213,25.3,25.3,43,0.00,CLR,,0.00,WeatherDisplay:10.37,2013-05-25 01:43:00,
2013-05-24 18:48:00,69.2,45.7,29.89,WSW,242,19.6,19.6,43,0.00,CLR,,0.00,WeatherDisplay:10.37,2013-05-25 01:48:00,
2013-05-24 18:53:00,69.3,45.8,29.89,WSW,258,20.7,20.7,43,0.00,CLR,,0.00,WeatherDisplay:10.37,2013-05-25 01:53:00,
2013-05-24 18:58:00,69.2,46.4,29.89,SW,234,26.5,26.5,44,0.00,CLR,,0.00,WeatherDisplay:10.37,2013-05-25 01:58:00,
2013-05-24 19:03:00,69.1,46.3,29.89,SW,236,24.2,24.2,44,0.00,CLR,,0.00,WeatherDisplay:10.37,2013-05-25 02:03:00,
2013-05-24 19:08:00,68.8,46.0,29.89,SW,236,25.0,25.0,44,0.00,CLR,,0.00,WeatherDisplay:10.37,2013-05-25 02:08:00,
2013-05-24 19:13:00,68.3,45.5,29.89,SSW,209,27.6,27.6,44,0.00,CLR,,0.00,WeatherDisplay:10.37,2013-05-25 02:13:00,
2013-05-24 19:18:00,67.9,45.2,29.90,SW,225,23.0,23.0,44,0.00,CLR,,0.00,WeatherDisplay:10.37,2013-05-25 02:18:00,
2013-05-24 19:23:00,67.6,44.9,29.90,SW,229,26.5,26.5,44,0.00,CLR,,0.00,WeatherDisplay:10.37,2013-05-25 02:23:00,
2013-05-24 19:28:00,67.3,44.6,29.90,SW,228,23.0,23.0,44,0.00,CLR,,0.00,WeatherDisplay:10.37,2013-05-25 02:28:00,
2013-05-24 19:33:00,66.9,45.4,29.90,SW,227,23.0,23.0,46,0.00,CLR,,0.00,WeatherDisplay:10.37,2013-05-25 02:33:00,
2013-05-24 19:38:00,66.5,45.1,29.90,SW,236,23.0,23.0,46,0.00,CLR,,0.00,WeatherDisplay:10.37,2013-05-25 02:38:00,
2013-05-24 19:43:00,66.1,44.7,29.90,WSW,237,18.4,18.4,46,0.00,CLR,,0.00,WeatherDisplay:10.37,2013-05-25 02:43:00,
2013-05-24 19:48:00,65.9,44.5,29.90,WSW,241,24.2,24.2,46,0.00,CLR,,0.00,WeatherDisplay:10.37,2013-05-25 02:48:00,
2013-05-24 19:53:00,65.6,44.3,29.90,SW,219,20.0,20.0,46,0.00,CLR,,0.00,WeatherDisplay:10.37,2013-05-25 02:53:00,
2013-05-24 19:58:00,65.4,43.5,29.90,WSW,248,17.3,17.3,45,0.00,CLR,,0.00,WeatherDisplay:10.37,2013-05-25 02:58:00,
2013-05-24 20:03:00,65.3,43.4,29.90,West,259,17.3,17.3,45,0.00,CLR,,0.00,WeatherDisplay:10.37,2013-05-25 03:03:00,
2013-05-24 20:08:00,65.1,43.2,29.90,SW,225,24.0,24.0,45,0.00,CLR,,0.00,WeatherDisplay:10.37,2013-05-25 03:08:00,
2013-05-24 20:13:00,64.8,42.9,29.90,SSW,212,17.3,17.3,45,0.00,CLR,,0.00,WeatherDisplay:10.37,2013-05-25 03:13:00,
2013-05-24 20:18:00,64.5,43.3,29.90,SW,221,16.1,16.1,46,0.00,CLR,,0.00,WeatherDisplay:10.37,2013-05-25 03:18:00,
2013-05-24 20:23:00,64.3,43.1,29.90,SW,219,19.6,19.6,46,0.00,CLR,,0.00,WeatherDisplay:10.37,2013-05-25 03:23:00,
2013-05-24 20:28:00,64.2,42.4,29.90,WSW,242,19.6,19.6,45,0.00,CLR,,0.00,WeatherDisplay:10.37,2013-05-25 03:28:00,
2013-05-24 20:33:00,64.1,41.7,29.91,SW,227,16.1,16.1,44,0.00,CLR,,0.00,WeatherDisplay:10.37,2013-05-25 03:33:00,
2013-05-24 20:38:00,63.9,42.1,29.91,WSW,240,18.4,18.4,45,0.00,CLR,,0.00,WeatherDisplay:10.37,2013-05-25 03:38:00,
2013-05-24 20:43:00,63.8,42.0,29.91,SW,214,18.4,18.4,45,0.00,CLR,,0.00,WeatherDisplay:10.37,2013-05-25 03:43:00,
2013-05-24 20:48:00,63.6,42.4,29.91,SW,231,19.6,19.6,46,0.00,CLR,,0.00,WeatherDisplay:10.37,2013-05-25 03:48:00,
2013-05-24 20:53:00,63.4,42.8,29.91,WSW,244,16.1,16.1,47,0.00,CLR,,0.00,WeatherDisplay:10.37,2013-05-25 03:53:00,
2013-05-24 20:58:00,63.2,42.6,29.91,WSW,238,15.0,15.0,47,0.00,CLR,,0.00,WeatherDisplay:10.37,2013-05-25 03:58:00,
2013-05-24 21:01:00,63.1,42.5,29.92,SW,217,17.3,17.3,47,0.00,CLR,,0.00,WeatherDisplay:10.37,2013-05-25 04:01:00,
2013-05-24 21:02:00,63.0,43.0,29.92,SW,230,13.8,13.8,48,0.00,CLR,,0.00,WeatherDisplay:10.37,2013-05-25 04:02:00,
2013-05-24 21:04:00,62.9,42.9,29.92,SW,229,17.3,17.3,48,0.00,CLR,,0.00,WeatherDisplay:10.37,2013-05-25 04:04:00,
2013-05-24 21:09:00,62.8,42.3,29.92,SW,228,12.7,12.7,47,0.00,CLR,,0.00,WeatherDisplay:10.37,2013-05-25 04:09:00,
2013-05-24 21:14:00,62.7,42.2,29.92,WSW,246,17.3,17.3,47,0.00,CLR,,0.00,WeatherDisplay:10.37,2013-05-25 04:14:00,
2013-05-24 21:19:00,62.7,41.0,29.92,SW,235,18.4,18.4,45,0.00,CLR,,0.00,WeatherDisplay:10.37,2013-05-25 04:19:00,
2013-05-24 21:24:00,62.7,42.2,29.92,SSW,202,21.9,21.9,47,0.00,CLR,,0.00,WeatherDisplay:10.37,2013-05-25 04:24:00,
2013-05-24 21:29:00,62.5,41.4,29.92,SW,236,17.3,17.3,46,0.00,CLR,,0.00,WeatherDisplay:10.37,2013-05-25 04:29:00,
2013-05-24 21:34:00,62.6,40.9,29.92,WSW,246,16.1,16.1,45,0.00,CLR,,0.00,WeatherDisplay:10.37,2013-05-25 04:34:00,
2013-05-24 21:39:00,62.5,39.7,29.92,WSW,245,12.7,12.7,43,0.00,CLR,,0.00,WeatherDisplay:10.37,2013-05-25 04:39:00,
2013-05-24 21:44:00,62.6,38.6,29.93,WSW,255,19.6,19.6,41,0.00,CLR,,0.00,WeatherDisplay:10.37,2013-05-25 04:44:00,
2013-05-24 21:49:00,62.6,38.6,29.93,WSW,240,17.3,17.3,41,0.00,CLR,,0.00,WeatherDisplay:10.37,2013-05-25 04:49:00,
2013-05-24 21:54:00,62.5,39.1,29.93,SSW,208,17.3,17.3,42,0.00,CLR,,0.00,WeatherDisplay:10.37,2013-05-25 04:54:00,
2013-05-24 21:59:00,62.5,38.5,29.93,WSW,256,15.0,15.0,41,0.00,CLR,,0.00,WeatherDisplay:10.37,2013-05-25 04:59:00,
2013-05-24 22:04:00,62.5,38.5,29.93,WSW,244,19.6,19.6,41,0.00,CLR,,0.00,WeatherDisplay:10.37,2013-05-25 05:04:00,
2013-05-24 22:09:00,62.4,38.4,29.93,SSW,199,13.8,13.8,41,0.00,CLR,,0.00,WeatherDisplay:10.37,2013-05-25 05:09:00,
2013-05-24 22:14:00,62.3,38.9,29.93,WSW,240,16.1,16.1,42,0.00,CLR,,0.00,WeatherDisplay:10.37,2013-05-25 05:14:00,
2013-05-24 22:19:00,62.1,39.3,29.93,WSW,241,13.8,13.8,43,0.00,CLR,,0.00,WeatherDisplay:10.37,2013-05-25 05:19:00,
2013-05-24 22:24:00,61.7,40.1,29.94,WSW,252,17.3,17.3,45,0.00,CLR,,0.00,WeatherDisplay:10.37,2013-05-25 05:24:00,
2013-05-24 22:29:00,61.3,40.3,29.94,SW,225,13.8,13.8,46,0.00,CLR,,0.00,WeatherDisplay:10.37,2013-05-25 05:29:00,
2013-05-24 22:34:00,60.9,40.5,29.94,SW,229,12.0,12.0,47,0.00,CLR,,0.00,WeatherDisplay:10.37,2013-05-25 05:34:00,
2013-05-24 22:39:00,60.6,40.8,29.94,SW,219,15.0,15.0,48,0.00,CLR,,0.00,WeatherDisplay:10.37,2013-05-25 05:39:00,
2013-05-24 22:44:00,60.4,41.1,29.94,WSW,244,15.0,15.0,49,0.00,CLR,,0.00,WeatherDisplay:10.37,2013-05-25 05:44:00,
2013-05-24 22:49:00,60.2,41.5,29.94,SSW,203,16.1,16.1,50,0.00,CLR,,0.00,WeatherDisplay:10.37,2013-05-25 05:49:00,
2013-05-24 22:54:00,60.0,41.8,29.94,SW,226,16.1,16.1,51,0.00,CLR,,0.00,WeatherDisplay:10.37,2013-05-25 05:54:00,
2013-05-24 22:59:00,59.9,42.2,29.94,SW,230,19.6,19.6,52,0.00,CLR,,0.00,WeatherDisplay:10.37,2013-05-25 05:59:00,
2013-05-24 23:04:00,59.8,42.1,29.93,SW,222,17.3,17.3,52,0.00,CLR,,0.00,WeatherDisplay:10.37,2013-05-25 06:04:00,
2013-05-24 23:09:00,59.7,41.5,29.93,SW,221,16.1,16.1,51,0.00,CLR,,0.00,WeatherDisplay:10.37,2013-05-25 06:09:00,
2013-05-24 23:14:00,59.6,40.9,29.93,SSW,200,18.4,18.4,50,0.00,CLR,,0.00,WeatherDisplay:10.37,2013-05-25 06:14:00,
2013-05-24 23:19:00,59.6,40.4,29.93,SW,218,16.1,16.1,49,0.00,CLR,,0.00,WeatherDisplay:10.37,2013-05-25 06:19:00,
2013-05-24 23:24:00,59.5,40.3,29.93,SW,222,17.3,17.3,49,0.00,CLR,,0.00,WeatherDisplay:10.37,2013-05-25 06:24:00,
2013-05-24 23:29:00,59.4,39.7,29.93,SW,222,18.4,18.4,48,0.00,CLR,,0.00,WeatherDisplay:10.37,2013-05-25 06:29:00,
2013-05-24 23:34:00,59.3,39.1,29.93,SW,229,16.1,16.1,47,0.00,CLR,,0.00,WeatherDisplay:10.37,2013-05-25 06:34:00,
2013-05-24 23:39:00,59.3,38.5,29.93,SW,223,15.0,15.0,46,0.00,CLR,,0.00,WeatherDisplay:10.37,2013-05-25 06:39:00,
2013-05-24 23:44:00,59.0,38.2,29.93,SSW,212,13.8,13.8,46,0.00,CLR,,0.00,WeatherDisplay:10.37,2013-05-25 06:44:00,
2013-05-24 23:49:00,59.0,38.2,29.93,SW,217,13.8,13.8,46,0.00,CLR,,0.00,WeatherDisplay:10.37,2013-05-25 06:49:00,
2013-05-24 23:54:00,59.0,38.2,29.93,SSW,207,15.0,15.0,46,0.00,CLR,,0.00,WeatherDisplay:10.37,2013-05-25 06:54:00,
2013-05-24 23:59:00,58.9,38.1,29.93,WSW,238,15.0,15.0,46,0.00,CLR,,0.00,WeatherDisplay:10.37,2013-05-25 06:59:00,